LA9TLA-1 Weather Reports


time (UTC)temp
C
wind
direction
speed
KPH
gust
KPH
rain 1hr
cm
rain 24hr
cm
rain mn
cm
humidity
%
barometer
mb
20260503015743 6 360 6.4 11.3 0.00 0.00 0.00 99 1021.0
20260503012746 6 360 4.8 11.3 0.00 0.00 0.00 99 1021.1
20260503005744 6 360 0.0 9.7 0.00 0.00 0.00 99 1021.1
20260503002743 6 360 0.0 8.0 0.00 0.00 0.00 99 1021.1
20260502232748 7 360 0.0 9.7 0.00 0.00 0.00 99 1021.1
20260502225745 7 360 4.8 12.9 0.00 0.00 0.00 99 1021.2
20260502222744 7 360 9.7 16.1 0.00 0.00 0.00 99 1021.2
20260502215744 7 360 9.7 19.3 0.00 0.00 0.05 99 1021.2
20260502205745 7 360 8.0 12.9 0.00 0.00 0.05 99 1021.2
20260502202745 8 360 6.4 14.5 0.00 0.00 0.05 99 1021.2
20260502195745 8 360 8.0 12.9 0.00 0.00 0.05 99 1021.1
20260502192746 9 360 4.8 12.9 0.00 0.00 0.05 99 1020.7
20260502185746 9 360 8.0 14.5 0.00 0.00 0.05 99 1020.7
20260502182746 10 360 4.8 14.5 0.00 0.00 0.05 99 1020.7
20260502162745 11 360 4.8 12.9 0.00 0.00 0.05 77 1020.6
20260502112745 10 360 1.6 4.8 0.00 0.00 0.00 59 1022.2
20260502105747 10 45 0.0 3.2 0.00 0.00 0.00 32 1022.2
20260502065748 10 90 1.6 8.0 0.00 0.00 0.00 10 1023.1
20260502062745 12 135 0.0 3.2 0.00 0.00 0.00 10 1023.2
20260502055745 13 135 0.0 4.8 0.00 0.00 0.00 10 1023.0
20260502052744 10 360 0.0 4.8 0.00 0.00 0.00 10 1023.2
20260502045745 11 135 0.0 1.6 0.00 0.00 0.00 10 1023.6
20260502042744 7 135 3.2 4.8 0.00 0.00 0.00 10 1023.4
20260502035748 6 135 0.0 1.6 0.00 0.00 0.00 10 1024.3
20260502032748 7 135 1.6 4.8 0.00 0.00 0.00 10 1024.1
20260502025747 7 135 1.6 4.8 0.00 0.00 0.00 10 1024.3